Date String (YYYY-MM-DD hh:mm:ss) UTC,Instrument flags,Ambient pressure (hPa),Sample flow (lpm),Bypass flow (lpm),Sample temperature (°C),Ambient temperature (°C),ASC tube jacket temperature (°C),LED temperature (°C),Box temperature (°C),Sample RH (%),Span deviation,Mass concentration (μg/m³),Mass concentration (μg/m³),Mass concentration (μg/m³)
DateTimeUTC,F1_M11,P_M11,Q1_M11,Q2_M11,T1_M11,T2_M11,T3_M11,T4_M11,T5_M11,U1_M11,ZSPAN_M11,X0_M11,X2_M11,X1_M11
2022-05-19 18:00:00,,0812.8,4.99,0.00,29.4,28.2,00.0,38.3,31.3,09.4,0000.0,0009.46,0003.58,0001.82
2022-05-19 18:01:00,,0812.7,5.00,0.00,29.4,28.3,00.0,38.3,31.3,09.5,0000.0,0010.12,0003.58,0001.83
2022-05-19 18:02:00,,0812.6,4.99,0.00,29.5,28.4,00.0,38.3,31.4,09.4,0000.0,0010.33,0003.60,0001.83
2022-05-19 18:03:00,,0812.7,5.01,0.00,29.5,28.5,00.0,38.3,31.4,09.6,0000.0,0010.28,0003.57,0001.85
2022-05-19 18:04:00,,0812.7,5.00,0.00,29.5,28.6,00.0,38.3,31.4,09.8,0000.0,0010.59,0003.56,0001.86
2022-05-19 18:05:00,,0812.7,5.00,0.00,29.6,28.7,00.0,38.3,31.5,09.7,0000.0,0010.69,0003.51,0001.88
2022-05-19 18:06:00,,0812.7,5.00,0.00,29.6,28.7,00.0,38.4,31.5,10.0,0000.0,0010.65,0003.50,0001.89
2022-05-19 18:07:00,,0812.7,4.99,0.00,29.6,28.1,00.0,38.3,31.3,10.0,0000.0,0010.86,0003.47,0001.88
2022-05-19 18:08:00,,0812.7,5.00,0.00,29.5,27.3,00.0,38.3,31.1,10.5,0000.0,0010.41,0003.44,0001.89
2022-05-19 18:09:00,,0812.6,5.01,0.00,29.4,27.1,00.0,38.2,31.0,09.9,0000.0,0010.06,0003.43,0001.89
2022-05-19 18:10:00,,0812.5,4.99,0.00,29.4,27.2,00.0,38.2,31.0,09.7,0000.0,0010.06,0003.42,0001.88
2022-05-19 18:11:00,,0812.5,4.99,0.00,29.3,27.3,00.0,38.2,31.1,09.9,0000.0,0010.11,0003.42,0001.89
2022-05-19 18:12:00,,0812.5,4.99,0.00,29.3,27.5,00.0,38.2,31.1,09.8,0000.0,0009.93,0003.42,0001.88
2022-05-19 18:13:00,,0812.4,5.01,0.00,29.3,27.6,00.0,38.2,31.1,10.2,0000.0,0009.81,0003.47,0001.90
2022-05-19 18:14:00,,0812.4,5.01,0.00,29.3,27.8,00.0,38.2,31.2,10.3,0000.0,0009.86,0003.45,0001.90
2022-05-19 18:15:00,,0812.5,5.00,0.00,29.3,27.9,00.0,38.2,31.2,10.5,0000.0,0009.58,0003.44,0001.89
2022-05-19 18:16:00,,0812.3,5.00,0.00,29.4,28.1,00.0,38.2,31.3,10.1,0000.0,0009.11,0003.46,0001.87
2022-05-19 18:17:00,,0812.4,5.00,0.00,29.4,28.2,00.0,38.2,31.3,09.6,0000.0,0008.89,0003.45,0001.89
2022-05-19 18:18:00,,0812.4,5.00,0.00,29.4,28.3,00.0,38.3,31.3,09.7,0000.0,0008.70,0003.44,0001.90
2022-05-19 18:19:00,,0812.4,5.00,0.00,29.5,28.4,00.0,38.3,31.4,10.4,0000.0,0008.92,0003.43,0001.90
2022-05-19 18:20:00,,0812.4,5.01,0.00,29.5,28.5,00.0,38.3,31.4,09.8,0000.0,0008.91,0003.43,0001.92
2022-05-19 18:21:00,,0812.3,5.01,0.00,29.5,28.6,00.0,38.3,31.4,09.8,0000.0,0009.60,0003.44,0001.92
2022-05-19 18:22:00,,0812.2,4.99,0.00,29.6,28.7,00.0,38.3,31.5,10.2,0000.0,0009.82,0003.44,0001.92
2022-05-19 18:23:00,,0812.3,5.01,0.00,29.6,28.5,00.0,38.3,31.5,09.8,0000.0,0009.40,0003.46,0001.93
2022-05-19 18:24:00,,0812.1,5.00,0.00,29.5,27.6,00.0,38.3,31.2,10.0,0000.0,0009.41,0003.43,0001.92
2022-05-19 18:25:00,,0812.2,4.99,0.00,29.4,27.1,00.0,38.2,31.1,10.3,0000.0,0009.70,0003.47,0001.93
2022-05-19 18:26:00,,0812.2,5.00,0.00,29.4,27.1,00.0,38.2,31.0,10.1,0000.0,0009.90,0003.48,0001.96
2022-05-19 18:27:00,,0812.2,5.00,0.00,29.3,27.2,00.0,38.2,31.0,10.5,0000.0,0010.02,0003.46,0001.98
2022-05-19 18:28:00,,0812.1,5.01,0.00,29.3,27.4,00.0,38.2,31.1,10.0,0000.0,0010.12,0003.43,0001.98
2022-05-19 18:29:00,,0812.1,5.00,0.00,29.3,27.5,00.0,38.2,31.1,09.8,0000.0,0010.24,0003.43,0001.99
2022-05-19 18:30:00,,0812.0,5.00,0.00,29.3,27.7,00.0,38.2,31.1,09.6,0000.0,0009.73,0003.45,0002.00
2022-05-19 18:31:00,,0812.0,5.00,0.00,29.3,27.9,00.0,38.2,31.2,10.1,0000.0,0009.68,0003.45,0002.00
2022-05-19 18:32:00,,0811.9,4.99,0.00,29.3,28.0,00.0,38.2,31.2,09.9,0000.0,0009.49,0003.54,0002.00
2022-05-19 18:33:00,,0811.9,5.01,0.00,29.4,28.2,00.0,38.2,31.3,10.1,0000.0,0009.74,0003.59,0002.01
2022-05-19 18:34:00,,0811.9,4.99,0.00,29.4,28.3,00.0,38.2,31.3,10.2,0000.0,0009.74,0003.62,0002.02
2022-05-19 18:35:00,,0811.8,5.00,0.00,29.4,28.4,00.0,38.2,31.4,10.2,0000.0,0009.64,0003.63,0002.03
2022-05-19 18:36:00,,0811.9,4.99,0.00,29.5,28.5,00.0,38.3,31.4,10.4,0000.0,0009.33,0003.59,0002.03
2022-05-19 18:37:00,,0811.8,5.00,0.00,29.5,28.6,00.0,38.3,31.4,10.0,0000.0,0009.33,0003.56,0002.02
2022-05-19 18:38:00,,0811.9,5.01,0.00,29.5,28.6,00.0,38.3,31.5,10.1,0000.0,0009.26,0003.61,0002.01
2022-05-19 18:39:00,,0811.8,5.01,0.00,29.6,28.4,00.0,38.3,31.4,10.9,0000.0,0009.46,0003.67,0002.03
2022-05-19 18:40:00,,0811.8,4.99,0.00,29.5,27.6,00.0,38.3,31.2,10.3,0000.0,0009.69,0003.70,0002.03
2022-05-19 18:41:00,,0811.7,5.00,0.00,29.4,27.1,00.0,38.2,31.0,10.3,0000.0,0009.76,0003.71,0002.03
2022-05-19 18:42:00,,0811.8,5.02,0.00,29.4,27.1,00.0,38.2,31.0,10.5,0000.0,0009.69,0003.68,0002.04
2022-05-19 18:43:00,,0811.8,5.00,0.00,29.3,27.2,00.0,38.2,31.0,10.1,0000.0,0009.66,0003.63,0002.04
2022-05-19 18:44:00,,0811.7,4.99,0.00,29.3,27.4,00.0,38.2,31.1,10.4,0000.0,0008.80,0003.58,0002.04
2022-05-19 18:45:00,,0811.7,5.01,0.00,29.3,27.5,00.0,38.2,31.1,10.3,0000.0,0008.89,0003.57,0002.03
2022-05-19 18:46:00,,0811.6,5.01,0.00,29.3,27.7,00.0,38.2,31.1,10.5,0000.0,0008.85,0003.57,0002.02
2022-05-19 18:47:00,,0811.5,5.01,0.00,29.3,27.9,00.0,38.2,31.2,10.0,0000.0,0009.00,0003.62,0002.03
2022-05-19 18:48:00,,0811.5,4.99,0.00,29.3,28.0,00.0,38.2,31.2,09.4,0000.0,0008.93,0003.66,0002.04
2022-05-19 18:49:00,,0811.5,4.99,0.00,29.4,28.1,00.0,38.2,31.3,09.7,0000.0,0009.01,0003.67,0002.02
2022-05-19 18:50:00,,0811.5,5.00,0.00,29.4,28.3,00.0,38.2,31.3,09.7,0000.0,0008.99,0003.61,0002.00
2022-05-19 18:51:00,,0811.5,5.01,0.00,29.4,28.4,00.0,38.2,31.3,10.4,0000.0,0008.72,0003.59,0001.98
2022-05-19 18:52:00,,0811.6,5.01,0.00,29.4,28.5,00.0,38.3,31.4,09.9,0000.0,0008.76,0003.55,0001.96
2022-05-19 18:53:00,,0811.6,4.99,0.00,29.5,28.6,00.0,38.3,31.4,09.8,0000.0,0008.95,0003.56,0001.94
2022-05-19 18:54:00,,0811.5,5.00,0.00,29.5,28.6,00.0,38.3,31.5,09.2,0000.0,0008.81,0003.55,0001.93
2022-05-19 18:55:00,,0811.3,5.01,0.00,29.5,28.4,00.0,38.3,31.4,09.4,0000.0,0008.80,0003.58,0001.94
2022-05-19 18:56:00,,0811.2,5.00,0.00,29.5,27.6,00.0,38.2,31.2,10.1,0000.0,0008.62,0003.59,0001.94
2022-05-19 18:57:00,,0811.3,5.00,0.00,29.4,27.2,00.0,38.2,31.1,09.8,0000.0,0008.62,0003.56,0001.93
2022-05-19 18:58:00,,0811.4,5.00,0.00,29.4,27.2,00.0,38.2,31.0,09.5,0000.0,0008.44,0003.52,0001.90
2022-05-19 18:59:00,,0811.4,5.00,0.00,29.3,27.3,00.0,38.2,31.0,09.6,0000.0,0008.37,0003.49,0001.89
